Location: Ferchesar
(52.6477°N, 12.4298°E)
Time: 02:18:03
(UTC+01:00)

Transit 2A - Pass Details

Date: 11 December 2021
Orbit: 591 x 967 km, 66.7° (Epoch: 17 January)

Event Time Altitude Azimuth Distance (km) Brightness Sun altitude
Exits shadow 06:06:44 18° 326° (NW) 2,191 7.9 -17.6°
Maximum altitude 06:11:36 64° 44° (NE) 1,065 6.8 -16.9°
Drops below altitude 10° 06:17:47 10° 126° (SE) 2,631 9.9 -16.0°
Sets 06:20:17 0° 129° (SE) 3,533 10.8 -15.7°
